Dewpoint
-6 -3 0 -1 -0 -1 -2 -2 -2 -4 -6 -5 -4 -5 -6 -6 -5 -5 -6 -5 -6 -6 -6 -4 -3 -3 -0 8 9 9 10 9 9 6 10 13 13 12 13 14 13 13 13 12
-6 -3 -4 -3 -3 -3 -2 -2 -3 -5 -6 -5 -4 -5 -7 -5 -5 -5 -5 -5 -6 -6 -6 -5 -5 -3 -2 4 9 9 10 9 10 7 7 11 12 14 13 13 13 13 12 12
-5 -7 -7 -5 -3 -3 -4 -4 -3 -3 -4 -4 -4 -3 -4 -6 -7 -6 -6 -6 -6 -5 -5 -5 -5 -4 -2 5 10 10 10 11 11 11 9 12 14 14 14 14 13 13 12 12
-3 -7 -8 -7 -4 -5 -3 -5 -5 -5 -4 -2 -5 -0 -4 -5 -6 -7 -7 -6 -7 -7 -6 -6 -5 -4 -2 1 7 10 10 11 13 13 11 10 13 14 14 14 14 12 11 10
-1 -3 -4 -6 -8 -7 -5 -6 -5 -5 -4 -4 -4 -1 -4 -4 -4 -6 -7 -7 -7 -7 -7 -7 -6 -6 -3 -1 5 11 11 12 14 13 13 12 13 14 14 13 13 12 10 9
-0 -2 -2 -4 -5 -6 -9 -8 -7 -6 -4 -1 -3 -3 -3 -4 -4 -6 -8 -9 -9 -8 -7 -7 -7 -7 -4 -1 4 11 13 13 14 14 13 13 13 13 14 13 12 10 9 7
2 1 -2 -2 -0 -3 -3 -3 -0 -0 -1 -0 -3 -2 -3 -5 -6 -6 -7 -8 -9 -8 -8 -7 -6 -5 -4 1 5 10 14 14 15 15 14 13 13 13 13 12 11 10 9 4
5 5 1 -2 -1 -1 -0 1 4 7 9 2 -3 -1 -3 -6 -6 -7 -7 -8 -8 -8 -9 -8 -6 -4 -4 1 5 8 13 15 15 14 13 14 13 13 12 12 10 9 8 3
5 4 -1 -1 -3 -2 -0 1 -1 2 2 5 3 0 -1 -3 -5 -6 -7 -6 -7 -8 -8 -8 -8 -7 -3 -1 4 7 11 14 14 14 13 14 13 13 12 11 9 8 6 0
3 5 1 0 -0 0 -1 -3 2 2 7 9 8 6 4 -0 -2 -2 -3 -5 -7 -7 -7 -8 -8 -5 -4 -1 4 8 9 12 14 13 14 14 14 13 13 10 8 5 4 -1
1 5 3 2 3 4 3 1 0 2 6 9 10 6 1 0 -1 -1 -2 -2 -1 -2 -3 -6 -6 -5 -2 2 5 8 12 14 13 14 13 13 14 13 12 9 7 5 3 0
3 5 7 5 2 1 2 3 3 6 9 7 7 6 -1 -0 -1 -1 -0 -1 -3 -3 -3 -4 -5 -5 -0 5 6 8 12 13 13 14 13 12 14 13 11 7 5 4 2 1
1 6 6 3 1 3 5 5 5 5 5 9 10 8 0 -0 -0 -1 -1 -2 -0 0 -1 -2 -2 0 3 7 9 10 13 14 14 14 13 13 13 11 9 5 4 3 2 1
-0 3 3 5 3 3 5 5 2 4 8 9 9 8 6 2 1 0 0 -0 -1 -1 1 -0 1 3 5 8 9 10 13 14 14 14 13 13 12 10 8 4 3 1 1 -1
-3 1 -1 -0 2 3 1 1 2 2 4 7 6 7 5 3 0 -1 -1 -2 -2 -1 -2 1 4 4 6 9 10 11 13 13 13 13 13 12 11 9 5 4 2 2 0 -1
1 2 2 2 1 1 2 2 3 3 2 2 2 4 4 4 2 -0 -1 -1 -1 -2 0 1 4 4 6 8 9 10 11 11 11 10 10 10 7 4 3 2 3 2 1 -9
2 3 3 3 0 2 4 3 -0 -1 -3 -0 3 1 -1 1 1 -0 0 -1 -2 -2 -2 1 2 6 6 8 9 9 9 10 9 8 7 6 4 2 3 2 3 0 -6 -9
1 2 4 3 2 4 -1 -4 -5 -3 -3 -4 -3 -2 -0 -1 -2 -1 -0 -0 -1 0 -1 -1 -1 1 6 7 9 10 9 9 8 6 6 5 4 3 3 3 1 -5 -8 -10
-0 1 3 4 2 1 1 -4 -3 -3 -4 -6 -6 -3 -3 -1 -0 -1 -4 -2 0 0 -0 -1 -1 -1 3 7 9 9 9 8 6 5 4 4 3 3 2 0 0 -6 -9 -9
0 1 2 1 3 3 -2 -5 -8 -6 -2 -7 -6 -3 -1 3 5 2 1 -1 -2 -3 -3 -3 -3 -1 3 7 9 9 8 7 6 4 3 2 1 1 -0 1 -3 -8 -7 -8
-0 1 3 3 3 1 -3 -5 -7 -0 -1 1 2 4 5 6 6 6 5 4 4 2 -1 -3 -3 -3 2 6 8 8 7 6 4 2 1 1 0 -0 0 -1 -6 -6 -6 -0
-0 -0 1 1 3 3 -3 -3 -1 -3 -2 -0 -0 1 1 5 6 4 4 4 3 2 1 0 0 -0 0 5 8 7 5 3 1 1 1 1 0 0 0 -3 -5 -4 -0 -0
0 -1 1 1 0 -3 -4 -4 -5 -3 -3 -3 -2 -2 1 6 4 4 4 4 3 2 2 2 2 2 1 5 6 7 4 2 0 0 1 0 0 1 -1 -3 -3 1 -1 -1
-2 -4 -1 -1 -3 -4 -3 -3 -3 -3 -3 -4 -4 2 4 6 4 4 5 4 1 2 3 2 2 3 5 6 6 5 4 2 -0 0 0 -0 -0 -2 -2 -1 0 -0 -1 0
-3 -2 -1 -2 -4 -5 -5 -4 -4 -4 -4 -3 -4 -2 1 1 5 5 4 3 0 1 3 3 3 4 5 4 3 2 1 0 -0 -0 -0 -1 -2 -1 -0 -0 -0 -1 0 -1
-0 -1 -1 -1 -4 -2 -3 -3 -3 -2 -3 -3 -4 -2 -1 0 2 1 4 4 4 1 2 3 3 4 3 4 3 1 -0 -0 -0 -0 -0 -1 -0 -0 -0 -1 -1 -1 -2 -2
Wind_Speed
15 5 14 20 16 12 11 10 13 12 10 9 17 17 11 24 26 22 23 19 21 24 21 27 34 36 34 43 46 44 41 34 29 33 40 36 31 29 29 30 29 28 23 21
8 19 21 15 7 15 16 19 23 18 14 15 20 16 11 10 12 29 28 26 29 29 26 26 27 24 44 39 49 47 44 38 32 33 35 33 35 34 34 33 30 27 24 22
15 21 17 15 15 18 20 19 19 19 13 16 19 19 13 13 14 19 25 24 26 32 34 34 29 29 31 40 49 49 45 40 35 32 34 31 31 36 35 33 31 27 26 25
10 21 19 17 20 19 21 16 19 19 14 13 5 15 23 6 11 10 20 27 33 35 34 29 28 35 33 38 42 49 46 43 38 36 34 36 41 44 43 38 32 30 27 28
9 15 23 24 25 19 20 18 19 18 16 12 15 8 25 7 13 9 13 32 37 42 48 44 41 38 36 39 43 48 47 46 45 41 37 36 40 43 42 35 33 33 30 30
19 24 13 12 19 18 17 21 19 15 15 16 23 13 25 18 15 9 20 29 32 35 46 46 44 44 36 39 43 47 52 50 48 43 39 39 42 45 44 39 37 36 33 31
14 21 19 21 23 20 18 14 13 12 15 17 18 11 24 5 18 22 21 33 40 37 43 47 46 39 38 38 48 48 51 52 50 45 41 42 42 46 46 43 41 39 36 34
6 7 17 14 13 14 16 12 10 19 11 19 14 18 21 16 20 30 38 38 43 40 35 46 45 37 39 37 47 54 50 51 51 46 44 44 41 43 44 42 41 38 36 34
4 14 16 21 15 20 23 14 22 17 13 13 19 27 29 19 23 29 33 29 37 43 43 41 43 35 39 40 43 53 56 52 48 45 44 44 43 46 44 43 40 36 33 33
11 16 20 22 20 23 16 17 13 13 16 19 11 16 15 31 16 12 12 17 29 41 42 39 40 35 32 40 41 51 57 57 50 49 45 44 45 46 48 43 38 37 35 34
8 4 21 4 8 19 17 13 15 15 5 9 8 11 23 31 21 22 24 25 30 27 30 41 43 31 24 35 40 52 55 53 50 48 44 45 47 45 46 45 41 40 38 37
4 2 7 17 20 16 17 20 19 10 13 6 12 15 14 10 17 14 19 29 45 48 47 45 35 30 25 38 42 50 52 50 49 45 44 42 47 50 48 50 46 42 40 38
2 2 5 16 7 3 5 12 18 21 10 15 7 7 21 22 25 35 23 34 23 25 25 23 18 22 27 38 43 46 45 46 46 46 42 42 51 48 49 51 47 46 44 40
4 5 10 11 15 14 16 18 18 15 9 9 14 19 29 27 20 20 24 31 26 33 9 13 18 23 31 37 40 43 44 45 45 41 40 44 49 50 50 50 51 49 44 39
2 8 10 13 18 17 17 19 20 19 23 19 20 19 26 29 22 23 35 46 34 32 30 13 23 29 32 36 39 40 43 42 41 40 40 41 45 48 50 53 51 46 40 34
4 6 7 18 18 18 20 16 14 18 22 20 24 19 20 38 33 30 33 42 29 23 27 24 24 33 35 38 41 42 42 42 40 39 40 45 50 53 54 52 47 42 38 35
4 3 1 15 15 16 15 18 16 14 19 14 15 19 19 27 19 25 32 29 39 40 29 28 28 34 39 40 42 44 43 40 37 36 41 46 52 54 51 47 39 39 37 34
10 6 3 12 11 20 16 14 20 16 15 14 14 17 17 25 33 37 39 38 42 42 31 30 29 33 42 45 46 45 44 41 40 41 43 49 53 54 51 42 41 36 32 32
15 11 7 9 14 17 15 15 10 14 23 15 13 17 20 32 27 33 41 35 40 42 45 46 33 34 45 49 50 48 45 43 43 45 49 51 53 54 48 46 38 35 34 30
17 17 9 10 16 22 21 8 8 8 14 19 10 16 19 15 12 17 31 37 40 50 49 40 33 29 45 51 53 49 49 48 47 50 51 51 55 55 50 44 40 36 32 32
2 3 12 13 12 11 17 21 17 14 14 9 16 19 26 7 8 32 37 44 45 49 47 47 44 35 36 49 54 53 52 53 50 49 51 52 56 53 50 42 38 37 35 28
7 3 5 5 8 13 29 15 15 17 20 17 17 22 25 27 28 38 45 50 49 46 43 35 30 31 32 47 58 56 53 49 49 53 54 54 53 51 44 41 39 36 31 24
15 11 4 9 6 6 12 13 24 28 25 25 21 25 28 21 23 32 40 50 40 18 17 22 24 30 32 45 57 57 54 54 54 56 55 53 49 45 42 40 40 34 26 23
9 15 8 14 21 22 30 36 37 31 32 39 34 29 25 31 28 21 26 40 29 19 8 14 16 17 26 36 41 51 59 58 58 58 54 51 49 46 41 38 32 27 25 19
11 5 15 17 22 26 32 34 39 41 38 31 31 32 27 30 26 26 24 26 27 13 7 13 12 23 30 29 35 47 52 59 61 58 56 52 48 44 43 30 26 26 19 18
5 14 7 11 19 11 20 31 32 33 34 34 34 35 31 28 31 33 37 22 25 19 5 7 14 23 29 35 37 40 46 52 56 55 51 49 44 41 31 31 27 20 17 21
Wind_Direction
177 175 218 217 217 233 267 261 254 252 251 259 255 273 248 222 226 241 250 236 236 244 243 233 230 225 224 212 211 215 214 215 210 205 205 211 210 196 204 212 219 227 228 212
243 221 223 231 234 240 240 247 257 270 266 279 281 276 266 260 225 220 229 234 237 236 234 236 242 238 225 218 207 213 217 214 212 209 208 205 199 201 209 214 218 224 214 203
214 234 226 227 225 243 250 246 255 253 258 251 273 284 275 270 239 239 233 239 236 243 237 234 235 239 224 214 207 209 216 215 215 206 202 198 201 208 211 217 219 207 201 199
232 260 246 245 226 226 248 251 260 265 269 262 217 273 272 250 267 246 245 245 248 254 252 249 243 236 226 218 217 209 213 217 212 209 205 208 204 209 212 213 210 202 200 200
222 225 232 242 239 227 238 245 253 266 267 276 268 249 263 229 249 273 251 244 243 243 248 250 250 243 231 222 218 210 208 213 210 211 216 210 206 215 217 209 205 201 200 205
270 282 291 276 272 261 262 266 272 271 258 254 252 236 271 247 249 254 268 261 258 251 249 249 248 250 236 224 220 211 206 209 212 211 218 214 208 213 212 208 202 201 202 203
285 275 283 278 284 276 259 261 254 265 251 249 250 236 253 211 235 240 249 262 265 269 251 245 240 240 232 218 213 210 206 206 210 210 214 212 210 212 212 209 205 201 200 200
265 297 229 232 240 260 263 249 249 242 245 267 283 245 241 260 257 255 251 259 269 271 266 244 230 225 231 220 212 212 208 207 207 213 215 214 210 209 214 215 211 207 204 202
227 251 261 271 279 247 257 249 252 271 253 243 244 255 283 276 256 255 256 253 258 270 272 247 229 230 229 224 213 213 211 209 208 213 218 212 209 212 214 217 214 211 205 202
243 270 257 270 284 281 263 254 251 233 244 251 249 252 244 256 260 293 281 281 269 269 254 235 223 223 227 227 213 212 216 215 209 213 215 214 210 215 213 214 211 209 204 202
270 341 290 324 244 257 279 279 262 255 206 231 247 239 231 253 259 276 278 292 308 301 281 223 216 217 226 214 208 208 211 207 210 212 211 217 213 213 206 206 210 208 205 204
47 156 286 282 284 265 261 261 276 272 261 244 241 254 248 250 240 254 274 302 302 300 290 233 214 222 214 207 204 207 210 209 211 212 217 214 206 200 201 204 204 202 203 203
107 56 322 313 327 339 317 344 344 318 259 228 248 258 266 258 269 273 274 283 338 298 254 192 200 203 205 199 198 206 210 207 209 209 209 209 202 198 199 200 199 200 201 199
177 188 232 257 263 281 289 289 298 303 288 292 245 259 271 268 253 258 275 265 301 312 273 195 189 202 202 198 202 206 207 207 206 205 207 203 201 199 199 199 196 196 198 201
355 285 284 284 273 268 276 293 290 275 275 289 299 264 264 265 263 260 269 275 287 269 275 239 197 200 201 199 204 206 207 205 208 207 207 209 207 203 200 199 197 197 200 203
48 301 308 284 285 287 280 272 283 277 268 264 271 275 244 271 288 281 254 263 258 262 262 253 214 207 210 207 207 208 209 209 210 213 211 209 202 200 197 196 200 202 202 197
198 201 312 276 294 300 271 244 251 272 283 279 284 290 287 275 264 270 277 263 279 279 273 251 234 211 214 215 216 213 216 213 209 207 202 201 197 195 198 198 202 196 190 190
267 233 190 272 305 270 263 240 242 258 265 264 266 277 305 293 295 275 268 262 269 272 269 253 255 247 222 218 216 213 210 210 209 204 202 201 200 201 197 200 192 189 190 190
224 242 248 254 260 285 297 259 262 275 279 270 282 295 292 302 303 289 275 282 271 270 266 270 271 253 231 215 213 211 204 206 203 201 201 202 200 199 196 191 193 190 192 188
226 223 212 243 255 261 271 291 296 305 289 284 287 278 295 325 311 293 308 300 292 277 272 276 276 261 229 213 211 207 204 204 205 204 199 200 198 196 194 193 188 190 187 184
209 191 221 236 247 256 252 276 274 245 252 38 354 338 330 313 286 309 317 317 302 281 277 267 261 253 233 220 206 204 204 202 200 188 196 197 196 195 195 185 186 186 183 184
214 198 206 213 235 264 251 269 237 247 290 313 318 305 304 303 313 316 322 321 316 272 259 245 246 250 243 219 201 202 198 186 184 187 193 191 192 191 186 183 181 182 185 184
243 219 200 194 216 240 268 280 276 292 299 298 301 305 304 293 311 329 319 317 311 294 250 247 252 251 246 209 204 193 185 181 183 186 187 187 185 187 184 180 179 181 183 185
255 245 244 263 254 257 264 267 269 276 290 289 292 296 303 288 291 300 306 312 305 302 286 249 233 189 169 182 183 191 183 183 185 183 180 178 179 174 173 176 185 184 182 184
237 136 227 248 259 268 268 265 268 270 273 270 288 292 285 294 283 280 287 298 315 292 187 157 175 170 162 166 174 176 177 181 180 178 174 173 173 174 169 179 184 185 184 189
215 242 231 250 258 229 263 273 269 265 268 277 287 282 282 283 278 275 266 274 269 281 255 195 171 175 171 183 185 176 174 177 174 168 167 168 170 167 173 175 173 172 191 205
Height
1492 1501 1495 1491 1491 1492 1492 1492 1491 1481 1476 1478 1474 1472 1466 1459 1460 1462 1464 1465 1466 1468 1471 1473 1474 1477 1474 1476 1480 1484 1487 1492 1496 1502 1505 1511 1516 1520 1524 1526 1529 1533 1536 1537
1494 1486 1476 1484 1490 1492 1490 1490 1483 1474 1472 1475 1468 1468 1464 1457 1451 1452 1456 1459 1459 1461 1464 1467 1469 1471 1470 1469 1473 1477 1481 1485 1488 1494 1498 1505 1512 1515 1519 1522 1525 1529 1532 1533
1486 1467 1477 1483 1486 1488 1482 1483 1479 1478 1472 1467 1465 1467 1459 1451 1450 1447 1449 1452 1455 1456 1458 1460 1463 1464 1463 1463 1467 1472 1475 1479 1483 1489 1494 1500 1510 1515 1515 1517 1519 1522 1527 1529
1477 1474 1477 1476 1475 1477 1480 1471 1469 1470 1476 1483 1466 1483 1451 1449 1446 1442 1443 1445 1448 1450 1450 1453 1456 1457 1456 1453 1457 1462 1468 1472 1477 1482 1485 1489 1497 1503 1504 1507 1512 1516 1521 1524
1470 1467 1470 1468 1465 1465 1467 1465 1463 1465 1469 1474 1469 1481 1433 1444 1445 1444 1439 1438 1438 1440 1440 1443 1445 1448 1452 1449 1449 1453 1459 1464 1468 1473 1477 1482 1489 1498 1501 1504 1507 1510 1515 1519
1469 1467 1468 1462 1461 1459 1460 1460 1459 1461 1466 1480 1457 1471 1441 1443 1443 1438 1435 1432 1431 1431 1432 1433 1435 1439 1443 1444 1444 1446 1451 1455 1459 1465 1469 1474 1481 1489 1493 1498 1501 1503 1508 1512
1474 1468 1463 1466 1466 1459 1459 1464 1477 1486 1478 1469 1447 1461 1444 1426 1428 1430 1430 1427 1424 1424 1423 1422 1424 1427 1431 1436 1437 1440 1443 1446 1452 1457 1463 1468 1473 1482 1487 1491 1494 1497 1501 1505
1478 1475 1461 1456 1459 1465 1459 1464 1479 1492 1498 1476 1448 1452 1437 1423 1422 1423 1422 1419 1416 1415 1415 1412 1414 1418 1421 1424 1429 1432 1434 1437 1443 1451 1458 1463 1468 1477 1482 1487 1490 1493 1496 1499
1472 1463 1453 1453 1454 1456 1454 1463 1450 1465 1462 1473 1457 1449 1434 1417 1412 1416 1414 1412 1408 1407 1405 1403 1405 1408 1412 1415 1418 1424 1427 1432 1438 1444 1451 1457 1464 1469 1476 1481 1487 1491 1494 1496
1460 1465 1446 1447 1452 1445 1449 1446 1461 1455 1472 1478 1465 1456 1443 1416 1416 1411 1411 1407 1403 1401 1396 1394 1397 1400 1402 1405 1411 1416 1419 1421 1431 1437 1443 1448 1455 1460 1468 1475 1482 1486 1489 1492
1453 1464 1443 1451 1448 1452 1449 1450 1446 1443 1455 1463 1464 1437 1415 1410 1415 1412 1401 1404 1402 1399 1396 1387 1389 1393 1395 1399 1404 1410 1413 1418 1425 1431 1436 1440 1446 1452 1461 1468 1476 1479 1482 1485
1460 1463 1471 1456 1447 1443 1441 1446 1449 1455 1459 1453 1448 1431 1404 1403 1403 1406 1405 1403 1395 1385 1381 1381 1383 1385 1389 1392 1398 1403 1408 1415 1421 1426 1429 1435 1440 1444 1452 1461 1465 1472 1476 1480
1460 1475 1478 1453 1441 1437 1444 1449 1453 1446 1438 1452 1455 1437 1400 1407 1401 1394 1402 1400 1392 1382 1376 1375 1378 1379 1384 1389 1394 1399 1405 1411 1417 1422 1427 1432 1436 1442 1447 1453 1457 1464 1468 1476
1458 1464 1474 1475 1461 1457 1455 1449 1451 1462 1459 1447 1439 1431 1404 1401 1400 1395 1388 1390 1390 1386 1382 1375 1375 1377 1381 1386 1391 1396 1401 1406 1412 1417 1425 1427 1432 1436 1443 1450 1451 1458 1464 1469
1456 1459 1459 1456 1449 1450 1442 1441 1438 1439 1443 1446 1428 1429 1417 1393 1395 1395 1391 1383 1388 1382 1378 1379 1377 1376 1378 1383 1387 1392 1397 1402 1407 1413 1419 1423 1428 1432 1439 1446 1445 1454 1459 1463
1458 1462 1460 1456 1448 1445 1442 1437 1437 1431 1431 1426 1419 1410 1409 1388 1398 1389 1381 1376 1381 1380 1378 1374 1376 1374 1372 1375 1378 1383 1389 1395 1400 1406 1410 1417 1422 1427 1433 1438 1441 1449 1454 1461
1457 1460 1462 1453 1445 1441 1437 1431 1424 1416 1416 1414 1415 1408 1403 1384 1383 1380 1380 1374 1371 1370 1370 1369 1370 1371 1370 1369 1372 1373 1380 1387 1393 1396 1402 1409 1414 1420 1425 1433 1440 1445 1452 1458
1450 1453 1457 1448 1448 1446 1413 1415 1411 1409 1402 1402 1401 1396 1394 1386 1378 1377 1373 1366 1363 1363 1363 1363 1363 1363 1363 1363 1365 1368 1373 1379 1386 1390 1395 1402 1409 1415 1420 1427 1437 1447 1452 1456
1436 1442 1447 1447 1442 1421 1416 1405 1409 1407 1392 1389 1388 1380 1379 1374 1368 1358 1359 1360 1359 1357 1354 1354 1354 1353 1352 1353 1354 1359 1366 1373 1380 1386 1389 1395 1400 1409 1417 1425 1433 1443 1451 1455
1420 1426 1435 1437 1436 1428 1404 1397 1394 1392 1394 1376 1380 1375 1371 1368 1374 1354 1365 1358 1350 1347 1346 1345 1343 1342 1342 1342 1344 1350 1357 1361 1368 1377 1384 1390 1396 1403 1412 1420 1429 1440 1448 1454
1421 1426 1428 1425 1424 1410 1394 1393 1395 1402 1389 1378 1374 1374 1374 1373 1374 1359 1355 1347 1342 1336 1331 1331 1333 1332 1333 1335 1335 1340 1346 1349 1360 1373 1379 1386 1391 1399 1408 1416 1430 1438 1445 1450
1418 1426 1420 1418 1414 1410 1387 1390 1394 1380 1376 1377 1375 1375 1374 1366 1364 1355 1348 1340 1331 1319 1317 1319 1321 1322 1323 1322 1325 1332 1339 1347 1356 1364 1372 1380 1388 1396 1406 1413 1424 1436 1441 1444
1406 1398 1406 1403 1393 1379 1376 1378 1376 1373 1370 1370 1370 1369 1365 1358 1352 1352 1347 1341 1332 1321 1310 1309 1310 1311 1310 1312 1315 1323 1329 1338 1349 1358 1367 1375 1384 1394 1404 1411 1421 1428 1434 1438
1388 1380 1388 1384 1372 1372 1371 1369 1368 1367 1365 1365 1365 1361 1359 1354 1348 1342 1348 1345 1332 1322 1311 1304 1301 1300 1305 1314 1317 1319 1321 1328 1341 1351 1362 1372 1379 1387 1398 1411 1419 1425 1429 1433
1370 1372 1369 1372 1366 1363 1363 1361 1359 1357 1356 1355 1355 1353 1351 1347 1342 1340 1337 1338 1333 1326 1318 1308 1304 1304 1309 1316 1322 1326 1326 1325 1334 1344 1356 1366 1377 1384 1394 1407 1415 1421 1425 1432
1362 1360 1368 1362 1351 1356 1353 1351 1351 1348 1345 1347 1347 1343 1341 1339 1334 1334 1333 1327 1331 1329 1320 1315 1312 1312 1313 1312 1323 1327 1330 1333 1336 1345 1356 1365 1376 1385 1395 1404 1412 1417 1424 1431